Regional Weather Roundup
Issued by NWS

Home | Current Version | Previous Version | Graphics & Text | Print | Product List | Glossary On
Versions: 1 2 3 4 5 6 7 8 9 10 11 12 13 14 15 16 17 18 19 20 21 22 23 24 25 26 27
000
ASUS45 KSLC 220910
RWRUT

UTAH REGIONAL WEATHER ROUNDUP
NATIONAL WEATHER SERVICE SALT LAKE CITY UT
300 AM MDT THU JUN 22 2017

UTZ001>011-023>025-221000-

NORTHERN UTAH

CITY           SKY/WX    TMP DP  RH WIND       PRES   REMARKS
BRIGHAM CITY   CLEAR     67  34  29 CALM      29.96R
HILL AFB       CLEAR     70  39  32 N5        29.98R
LOGAN          CLEAR     56  47  71 CALM      29.99R
OGDEN          CLEAR     69  40  34 W5        29.96R
SALT LAKE CITY CLEAR     75  45  34 NW10      29.94R
TOOELE VALLEY  CLEAR     59  52  77 S5        29.98S
WENDOVER         N/A     74  32  21 W12       29.98R
HEBER CITY     CLEAR     54  46  76 CALM      30.02S
WEST JORDAN    CLEAR     74  48  39 N9        29.98R

$$

UTZ011>015-024>027-221000-

CENTRAL/NORTHEAST UTAH

CITY           SKY/WX    TMP DP  RH WIND       PRES   REMARKS
PROVO AIRPORT  CLEAR     73  55  53 N7        29.95R
MOAB/CANYONLAN MOCLDY    75  31  19 SW5       29.84F
DELTA          CLEAR     73  45  35 N13       29.95R
PRICE          CLEAR     71  33  24 NW5       29.98F
ROOSEVELT      CLEAR     68  39  34 W12       29.96S
VERNAL         PTCLDY    73  41  31 W5        29.93F

$$

UTZ013>016-019>022-027-221000-

SOUTHERN UTAH

CITY           SKY/WX    TMP DP  RH WIND       PRES   REMARKS
BRYCE CANYON   PTCLDY    45  29  53 W5        30.19S
CEDAR CITY     CLEAR     73  26  17 SE5       30.00F
MILFORD        CLEAR     69  26  20 CALM      29.96S
ST GEORGE      SUNNY     85  28  12 SW3       29.77S
HANKSVILLE     PTCLDY    72  28  20 N3        29.89R
BLANDING       PTCLDY    68  35  29 NW6       30.08R

$$

REGIONAL REPORTS     COLORADO/ARIZONA

CITY           SKY/WX    TMP DP  RH WIND       PRES   REMARKS
CRAIG, CO      CLOUDY    67  44  43 S12       30.03F
GRAND JUNCTION CLEAR     75  39  27 SE5       29.92S
RIFLE, CO      CLOUDY    71  38  29 SE12      30.01F
MONTROSE, CO   CLOUDY    64  39  39 SE8       30.01F
CORTEZ, CO     CLOUDY    55  41  59 E6        30.03S
COLORADO CITY    N/A     61  30  31 SE5       29.99S
PAGE, AZ       CLEAR     86  26  11 SW5       29.88R
GRAND CANYON   PTCLDY    52  29  41 CALM      30.15S
KINGMAN, AZ    CLEAR     87  30  13 S13       29.84S
FLAGSTAFF, AZ  PTCLDY    70  25  18 CALM      30.17S

$$

REGIONAL REPORTS    NEVADA/IDAHO/WYOMING

CITY           SKY/WX    TMP DP  RH WIND       PRES   REMARKS
LAS VEGAS, NV  CLEAR     94  26   9 S7        29.68F
ELY, NY        CLEAR     67  42  40 N13       30.09S
ELKO, NV       CLEAR     61  39  44 CALM      30.09R
POCATELLO, ID  CLEAR     62  36  37 SW15      30.02R
BURLEY, ID     CLEAR     64  35  34 W22G32    29.99R
FORT BRIDGER,    N/A     63  41  44 W12       30.14R
EVANSTON, WY   CLOUDY    60  44  55 SW6       30.13S
ROCK SPRINGS,  CLEAR     61  39  44 W10       30.08F
KEMMERER, WY     N/A     55  36  47 CALM      30.13S

$$




USA.gov is the U.S. government's official web portal to all federal, state and local government web resources and services.